World > North America > United States > New Jersey

High Bar Harbor, New Jersey Regional Weather

Lat: 39.62N, Lon: 74.2W
Wx Zone: NJZ026
Feedback

High Bar Harbor, NJ Regional Weather

Expires:201907231500;;510730
ASUS41 KPHI 231412
RWRPHI

REGIONAL WEATHER ROUNDUP
NATIONAL WEATHER SERVICE MOUNT HOLLY NJ
1000 AM EDT TUE JUL 23 2019

NOTE:  "FAIR" INDICATES FEW OR NO CLOUDS BELOW 12,000 FEET WITH NO
SIGNIFICANT WEATHER AND/OR OBSTRUCTIONS TO VISIBILITY.

 * = STATION DOES NOT REPORT PRECIPITATION (E.G. RAIN, SNOW, ETC.) 
        OR FOG.


NJZ015>026-231500-
SOUTHERN NEW JERSEY
  
CITY           SKY/WX    TMP DP  RH WIND       PRES   REMARKS
POMONA         LGT RAIN  71  67  87 NW13      29.84S                  
WILDWOOD*      LGT RAIN  72  70  94 W8G16     29.86S                  
MILLVILLE      LGT RAIN  70  68  93 W9        29.86S                  
WRIGHTSTOWN    PTSUNNY   70  68  94 NW9       29.83R                  
TRENTON        LGT RAIN  70  66  87 NW8       29.84R                  

$$

SKY/WX - Weather  TMP - Temperature  DP - Dew Point  RH - Relative Humidity
WIND - Wind Direction/Speed PRES - Barometric Pressure VSB - Visibility
WCI - Wind Chill Index E13G22 Wind - East Wind 13 mph/Gusts of 22 mph